Flag for Norway Weather past 2 weeks in Gjøvik, Norway

Now
44 °F

Quite cool.


Feels Like: 44 °F
Forecast: 37 / 58 °F
Wind: 2 mph from Southeast

Location: Lillehammer-Saetherengen

Current Time: May 30, 2015 at 4:36:45 AM

Latest Report: May 30, 2015 at 4:00 AM


Visibility: N/A

Pressure: 29.59 "Hg

Humidity: 78%

Dew point: 38 °F

Location of GjøvikLocation

Historic Weather in Gjøvik — Graph

°F

Gjøvik temperature yesterday

Maximum temperature yesterday: 57 °F (at 7:00 PM)
Minimum temperature yesterday: 42 °F (at 6:00 AM)
Average temperature yesterday: 48 °F

Past Weeks' High & Low Weather Summary

 TemperatureHumidityPressure
High59 °F (May 21, 7:00 PM)97% (May 29, 6:00 AM)29.98 "Hg (May 29, 6:00 AM)
Low35 °F (May 15, 6:00 AM)20% (May 15, 6:00 PM)29.35 "Hg (May 29, 4:00 AM)
Average46 °F70%29.74 "Hg
* Reported May 15 3:00 AM — May 30 3:00 AM, Gjøvik, Weather by CustomWeather, © 2015

Note: Actual official high and low records may vary slightly from our data, if they occured in-between our weather recording intervals... More about our weather records

Advertising

Gjøvik weather history for previous 24 hours

 ConditionsComfort  
Time TempWeatherWind HumidityBarometerVisibility
3:00 AM
Sat, May 30
45 °FCool.3 mph77%29.59 "HgN/A
2:00 AM46 °FCool.3 mph74%29.59 "HgN/A
1:00 AM46 °FCool.3 mph72%29.59 "HgN/A
12:00 AM47 °FCool.3 mph65%29.58 "HgN/A
11:00 PM
Fri, May 29
48 °FCool.2 mph60%29.57 "HgN/A
10:00 PM50 °FCool.6 mph54%29.54 "HgN/A
9:00 PM51 °FCool.5 mph57%29.50 "HgN/A
8:00 PM55 °FCool.2 mph36%29.47 "HgN/A
7:00 PM57 °FRefreshingly cool.1 mph36%29.47 "HgN/A
6:00 PM55 °FRefreshingly cool.2 mph35%29.47 "HgN/A
5:00 PM55 °FRefreshingly cool.2 mph35%29.47 "HgN/A
4:00 PM56 °FRefreshingly cool.2 mph48%29.44 "HgN/A
3:00 PM55 °FCool.1 mph43%29.44 "HgN/A
2:00 PM54 °FCool.1 mph61%29.44 "HgN/A
1:00 PM48 °FCool.1 mph75%29.47 "HgN/A
12:00 PM47 °FCool.1 mph76%29.47 "HgN/A
11:00 AM45 °FCool.2 mph81%29.44 "HgN/A
10:00 AM44 °FQuite cool.1 mph89%29.44 "HgN/A
9:00 AM44 °FQuite cool.2 mph89%29.41 "HgN/A
8:00 AM43 °FQuite cool.2 mph94%29.38 "HgN/A
7:00 AM42 °FQuite cool.1 mph96%29.38 "HgN/A
6:00 AM42 °FQuite cool.2 mph97%29.35 "HgN/A
5:00 AM42 °FQuite cool.1 mph96%29.35 "HgN/A
4:00 AM42 °FQuite cool.2 mph96%29.35 "HgN/A
Weather by CustomWeather, © 2015

See weather overviewHow to use our weather pages